Location: Abundant Life Christian Fellowship
(40.7310°N, 73.2391°W)
Time: 19:42:46
(UTC+00:00)

Daily predictions for brighter satellites

Satellite Brightness Start Highest point End
(mag) Time Altitude Azimuth Time Altitude Azimuth Time Altitude Azimuth
H-2A R/B 2.7 23:44:14 10° SE 23:49:00 37° ENE 23:53:40 10° N
Meteor 2-15 4.4 23:43:32 10° S 23:49:32 71° E 23:55:34 10° NNE
FREGAT/IRIS 3.9 23:50:29 10° ESE 23:52:33 20° ENE 23:54:36 10° NNE
STARLINK-1119 3.6 23:48:29 10° NW 23:52:38 90° W 23:56:47 10° SE
SJ-6B 4.2 23:50:17 10° ESE 23:53:33 23° ENE 23:56:50 10° NNE
SL-14 R/B 3.8 23:49:54 10° NNW 23:53:54 65° W 23:57:49 10° S
